Погода в Кичме

Россия / Кировская область     57°11′24″N   48°55′25″E
темп.,
°C
ветер,
м/с
пор.,
м/с
влажн.,
%
обл.,
%
осадки,
мм/ч
давл.,
гПа
погр.,
м
14 июня, пн
пн1400:00+15ю379162 0.0 1012116
03:00+14ю349426 0.0 101371
06:00+17ю4689100 0.0 1014256
09:00+21ююз56745 0.0 1014810
12:00+24юз686052 0.0 10141636
15:00+24зюз4762100 0.2 10141536
18:00+21з2578100 1.4 1014134
21:00+18ююз228350 1.4 101412
15 июня, вт
вт1500:00+17юз228594 0.0 101411
03:00+16зюз228948 0.0 101419
06:00+19юз128239 0.0 1015138
09:00+23зюз006591 0.2 1014294
12:00+25ююз224814 0.6 10141846
15:00+23ю3567100 0.6 1013352
18:00+22ю3476100 0.4 1012117
21:00+18ю468953 0.7 1012103
16 июня, ср
ср1600:00+17ю3393100 0.0 101250
03:00+15ююв22935 0.0 101224
06:00+19юв34865 0.0 1011190
09:00+23вюв457027 0.0 1009538
12:00+25в246771 0.0 1007922
15:00+28ююв3555100 0.0 10051840
18:00+18ссз71393100 6.4 1005380
21:00+16сз61295100 9.9 1008691
17 июня, чт
чт1700:00+13ссз615910 0.1 1010559
03:00+11сз41295100 0.1 1012295
06:00+12сз612875 0.0 1014579
09:00+17ссз710610 0.0 10161251
12:00+19ссз69485 0.0 10171971
15:00+20ссз58488 0.0 10172430
18:00+17ссз512635 0.0 1018416
21:00+13ссз48753 0.0 1020124
18 июня, пт
пт1800:00+11ссз34731 0.0 102148
03:00+11сз337181 0.0 102254
06:00+14ссз35744 0.0 1024216
09:00+17ссз46617 0.0 1024960
12:00+20сз46490 0.0 10231509
15:00+21сз46465 0.0 10231616
18:00+20зюз476968 0.0 1022276
21:00+16з467695 0.0 102288